Gorizont

operational
NORAD ID: 23775 Int'l Des: 1996-005 Owner: GPKS Country: RU
HEOCIRCULAR

关于 Gorizont

正在加载描述...

实时位置

正在加载3D地球...

即将过境

高度历史

Altitude vs Time

uPlot chart will show altitude changes over time

两行轨道根数

1 23775U 96005A 26063.18016922 -.00000232 00000-0 00000+0 0 9997
2 23775 14.4138 355.3801 0021902 245.8866 269.3807 0.99886866110002
Epoch: Mar 4, 2026 • Age: 9 hours

当前状态

高度 35810.7 km
速度 3.08 km/s
星下点 -9.98°S, 77.41°W
发射日期 Jan 25, 1996
运行时间 30.1 years
类型 other

技术详情

分类 Payload
质量 2120.00 kg
干质量 2000.00 kg
总质量 2120.00 kg
长度 5.50 m
直径 3.30 m
跨度 9.50 m
形状 Cyl + 2 Pan
制造商 NPOPMR
平台类型 Gorizont
阶段状态 In Orbit
所有者/国家 GPKS/RU

大型星座

Loading constellations...